Location: Biltmore Gardens
(41.6070°N, 83.4666°W)
Time: 13:58:07
(UTC+00:00)

CZ-4C R/B - Pass Details

Date: 14 July 2020
Orbit: 632 x 1369 km, 63.4° (Epoch: 04 August)

Event Time Altitude Azimuth Distance (km) Brightness Sun altitude
Rises 03:42:23 0° 328° (NNW) 3,798 7.2 -21.2°
Reaches altitude 10° 03:45:01 10° 335° (NNW) 2,948 6.2 -21.4°
Maximum altitude 03:51:51 44° 46° (NE) 1,634 3.7 -22.0°
Enters shadow 03:56:50 22° 106° (ESE) 2,527 4.3 -22.4°
